^^
Saratoga-Weather Station Historical Data
Daily Summary for November 21, 2020 Units:  Metric    English   Both
Daily Weekly Monthly Yearly Custom
  High: Low: Average:
Temperature: 4.1 °C -2.6 °C 0.3 °C
Dew Point: 3.1 °C -3.1 °C -0.5 °C
Humidity: 96% 91% 95%
Wind Speed: 3.2km/h 0km/h 0.3km/h
Wind Gust: 4.8km/h - -
Wind- - SE
Pressure: 1036.2 hPa 1030.8 hPa -
Precipitation: 0.0 mm    
Historical Graphs
 
 
Tabular Data for November 21, 2020
Time Temperature Dew Point Pressure Wind Wind Speed Wind Gust Humidity Rainfall Rate (Hourly) solar
00:02 -1.2 °C -2 °C 1036.2 hPa Calm     94% 0.0 mm 0 W/m2
00:08 -1.2 °C -2 °C 1036.2 hPa Calm     94% 0.0 mm 0 W/m2
00:13 -1.2 °C -2 °C 1036.2 hPa Calm     94% 0.0 mm 0 W/m2
00:18 -1.2 °C -2 °C 1036.2 hPa Calm     94% 0.0 mm 0 W/m2
00:23 -1.2 °C -1.9 °C 1036.2 hPa Calm     95% 0.0 mm 0 W/m2
00:28 -1.2 °C -1.9 °C 1035.9 hPa Calm     95% 0.0 mm 0 W/m2
00:33 -1.2 °C -1.9 °C 1036.2 hPa Calm     95% 0.0 mm 0 W/m2
00:38 -1.2 °C -1.9 °C 1035.9 hPa Calm     95% 0.0 mm 0 W/m2
00:43 -1.2 °C -1.9 °C 1036.2 hPa Calm     95% 0.0 mm 0 W/m2
00:48 -1.2 °C -1.9 °C 1035.9 hPa Calm     95% 0.0 mm 0 W/m2
00:53 -1.2 °C -1.9 °C 1035.9 hPa Calm     95% 0.0 mm 0 W/m2
00:58 -1.2 °C -1.9 °C 1035.6 hPa Calm     95% 0.0 mm 0 W/m2
01:03 -1.2 °C -1.9 °C 1035.6 hPa Calm     95% 0.0 mm 0 W/m2
01:08 -1.3 °C -2 °C 1035.9 hPa Calm     95% 0.0 mm 0 W/m2
01:13 -1.3 °C -2 °C 1035.9 hPa Calm     95% 0.0 mm 0 W/m2
01:18 -1.3 °C -2 °C 1035.6 hPa Calm     95% 0.0 mm 0 W/m2
01:23 -1.3 °C -2 °C 1035.6 hPa Calm     95% 0.0 mm 0 W/m2
01:28 -1.3 °C -2 °C 1035.6 hPa Calm     95% 0.0 mm 0 W/m2
01:33 -1.4 °C -2.1 °C 1035.6 hPa Calm     95% 0.0 mm 0 W/m2
01:38 -1.4 °C -2.1 °C 1035.6 hPa Calm     95% 0.0 mm 0 W/m2
01:43 -1.4 °C -2.1 °C 1035.6 hPa Calm     95% 0.0 mm 0 W/m2
01:48 -1.4 °C -2.1 °C 1035.6 hPa Calm     95% 0.0 mm 0 W/m2
01:53 -1.4 °C -2.1 °C 1035.6 hPa Calm     95% 0.0 mm 0 W/m2
01:58 -1.5 °C -2.2 °C 1035.2 hPa Calm     95% 0.0 mm 0 W/m2
02:03 -1.6 °C -2.3 °C 1035.6 hPa Calm     95% 0.0 mm 0 W/m2
02:08 -1.6 °C -2.3 °C 1035.2 hPa Calm     95% 0.0 mm 0 W/m2
02:13 -1.6 °C -2.3 °C 1035.2 hPa Calm     95% 0.0 mm 0 W/m2
02:18 -1.6 °C -2.3 °C 1035.2 hPa Calm     95% 0.0 mm 0 W/m2
02:23 -1.6 °C -2.3 °C 1035.2 hPa Calm     95% 0.0 mm 0 W/m2
02:28 -1.7 °C -2.4 °C 1035.2 hPa Calm     95% 0.0 mm 0 W/m2
02:33 -1.7 °C -2.4 °C 1035.2 hPa Calm     95% 0.0 mm 0 W/m2
02:38 -1.7 °C -2.4 °C 1035.2 hPa Calm     95% 0.0 mm 0 W/m2
02:43 -1.7 °C -2.4 °C 1035.2 hPa Calm     95% 0.0 mm 0 W/m2
02:48 -1.8 °C -2.5 °C 1035.2 hPa Calm     95% 0.0 mm 0 W/m2
02:53 -1.8 °C -2.5 °C 1035.2 hPa Calm     95% 0.0 mm 0 W/m2
02:58 -1.9 °C -2.6 °C 1035.2 hPa Calm     95% 0.0 mm 0 W/m2
03:03 -1.9 °C -2.6 °C 1035.2 hPa Calm     95% 0.0 mm 0 W/m2
03:08 -1.9 °C -2.6 °C 1035.2 hPa Calm     95% 0.0 mm 0 W/m2
03:13 -1.8 °C -2.5 °C 1034.9 hPa Calm     95% 0.0 mm 0 W/m2
03:18 -1.8 °C -2.5 °C 1035.2 hPa Calm     95% 0.0 mm 0 W/m2
03:23 -1.8 °C -2.5 °C 1034.9 hPa Calm     95% 0.0 mm 0 W/m2
03:28 -1.8 °C -2.5 °C 1035.2 hPa Calm     95% 0.0 mm 0 W/m2
03:33 -1.9 °C -2.6 °C 1034.9 hPa Calm     95% 0.0 mm 0 W/m2
03:38 -1.9 °C -2.6 °C 1034.9 hPa Calm     95% 0.0 mm 0 W/m2
03:43 -2 °C -2.7 °C 1034.9 hPa Calm     95% 0.0 mm 0 W/m2
03:48 -2 °C -2.7 °C 1034.9 hPa Calm     95% 0.0 mm 0 W/m2
03:53 -2.1 °C -2.8 °C 1034.9 hPa Calm     95% 0.0 mm 0 W/m2
03:58 -2.1 °C -2.8 °C 1034.9 hPa Calm     95% 0.0 mm 0 W/m2
04:03 -2.1 °C -2.8 °C 1035.2 hPa Calm     95% 0.0 mm 0 W/m2
04:08 -2.1 °C -2.8 °C 1035.2 hPa Calm     95% 0.0 mm 0 W/m2
04:13 -2.2 °C -2.9 °C 1034.9 hPa Calm     95% 0.0 mm 0 W/m2
04:18 -2.1 °C -2.7 °C 1034.9 hPa Calm     96% 0.0 mm 0 W/m2
04:23 -2.2 °C -2.8 °C 1034.9 hPa Calm     96% 0.0 mm 0 W/m2
04:28 -2.2 °C -2.8 °C 1034.9 hPa Calm     96% 0.0 mm 0 W/m2
04:33 -2.2 °C -2.8 °C 1034.9 hPa Calm     96% 0.0 mm 0 W/m2
04:38 -2.3 °C -2.9 °C 1035.2 hPa Calm     96% 0.0 mm 0 W/m2
04:44 -2.3 °C -3 °C 1035.2 hPa Calm     95% 0.0 mm 0 W/m2
04:49 -2.4 °C -3.1 °C 1035.2 hPa Calm     95% 0.0 mm 0 W/m2
04:54 -2.4 °C -3.1 °C 1035.2 hPa Calm     95% 0.0 mm 0 W/m2
04:59 -2.4 °C -3.1 °C 1034.9 hPa West 1.4 km/h 1.6 km/h 95% 0.0 mm 0 W/m2
05:04 -2.4 °C -3 °C 1034.9 hPa West 1.4 km/h 3.2 km/h 96% 0.0 mm 0 W/m2
05:09 -2.4 °C -3 °C 1034.9 hPa Calm   1.6 km/h 96% 0.0 mm 0 W/m2
05:14 -2.4 °C -3 °C 1034.9 hPa Calm     96% 0.0 mm 0 W/m2
05:19 -2.4 °C -3 °C 1034.9 hPa Calm   1.6 km/h 96% 0.0 mm 0 W/m2
05:24 -2.5 °C -3 °C 1035.2 hPa Calm     96% 0.0 mm 0 W/m2
05:29 -2.5 °C -3 °C 1035.2 hPa Calm     96% 0.0 mm 0 W/m2
05:34 -2.6 °C -3.1 °C 1035.2 hPa Calm     96% 0.0 mm 0 W/m2
05:39 -2.6 °C -3.1 °C 1034.9 hPa West 1.4 km/h 1.6 km/h 96% 0.0 mm 0 W/m2
05:44 -2.6 °C -3.1 °C 1035.2 hPa SSE 1.4 km/h 3.2 km/h 96% 0.0 mm 0 W/m2
05:49 -2.6 °C -3.1 °C 1034.9 hPa SSE 1.4 km/h 3.2 km/h 96% 0.0 mm 0 W/m2
05:54 -2.6 °C -3.1 °C 1034.9 hPa Calm   1.6 km/h 96% 0.0 mm 0 W/m2
05:59 -2.6 °C -3.1 °C 1034.9 hPa Calm   1.6 km/h 96% 0.0 mm 0 W/m2
06:04 -2.6 °C -3.1 °C 1034.9 hPa SE 1.4 km/h 3.2 km/h 96% 0.0 mm 0 W/m2
06:09 -2.6 °C -3.1 °C 1035.2 hPa Calm   1.6 km/h 96% 0.0 mm 0 W/m2
06:14 -2.5 °C -3 °C 1035.2 hPa Calm   3.2 km/h 96% 0.0 mm 0 W/m2
06:19 -2.5 °C -3 °C 1035.2 hPa Calm     96% 0.0 mm 0 W/m2
06:24 -2.6 °C -3.1 °C 1035.2 hPa Calm     96% 0.0 mm 0 W/m2
06:29 -2.6 °C -3.1 °C 1035.2 hPa Calm     96% 0.0 mm 0 W/m2
06:34 -2.5 °C -3 °C 1035.2 hPa Calm     96% 0.0 mm 0 W/m2
06:39 -2.5 °C -3 °C 1035.2 hPa Calm     96% 0.0 mm 0 W/m2
06:44 -2.5 °C -3 °C 1035.2 hPa Calm     96% 0.0 mm 0 W/m2
06:49 -2.4 °C -3 °C 1034.9 hPa Calm     96% 0.0 mm 0 W/m2
06:54 -2.4 °C -3 °C 1035.2 hPa Calm     96% 0.0 mm 0 W/m2
06:59 -2.4 °C -3 °C 1035.2 hPa Calm     96% 0.0 mm 0 W/m2
07:04 -2.3 °C -2.9 °C 1034.9 hPa Calm     96% 0.0 mm 0 W/m2
07:09 -2.3 °C -2.9 °C 1035.2 hPa Calm     96% 0.0 mm 0 W/m2
07:14 -2.2 °C -2.8 °C 1035.2 hPa Calm     96% 0.0 mm 0 W/m2
07:19 -2.1 °C -2.7 °C 1035.2 hPa Calm     96% 0.0 mm 0 W/m2
07:24 -2.1 °C -2.7 °C 1035.2 hPa Calm     96% 0.0 mm 0 W/m2
07:29 -2.1 °C -2.7 °C 1035.2 hPa Calm     96% 0.0 mm 0 W/m2
07:34 -2.1 °C -2.7 °C 1034.9 hPa Calm     96% 0.0 mm 0 W/m2
07:39 -2.1 °C -2.7 °C 1035.2 hPa Calm     96% 0.0 mm 0 W/m2
07:44 -2 °C -2.6 °C 1035.2 hPa Calm     96% 0.0 mm 0 W/m2
07:49 -2 °C -2.6 °C 1035.2 hPa Calm     96% 0.0 mm 5 W/m2
07:54 -1.9 °C -2.5 °C 1035.2 hPa Calm     96% 0.0 mm 0 W/m2
07:59 -1.9 °C -2.5 °C 1035.2 hPa SE 1.4 km/h 3.2 km/h 96% 0.0 mm 0 W/m2
08:04 -1.9 °C -2.5 °C 1035.2 hPa SE 1.4 km/h 3.2 km/h 96% 0.0 mm 5 W/m2
08:09 -1.9 °C -2.5 °C 1035.2 hPa Calm   1.6 km/h 96% 0.0 mm 7 W/m2
08:14 -1.9 °C -2.5 °C 1035.2 hPa Calm   1.6 km/h 96% 0.0 mm 11 W/m2
08:19 -2 °C -2.6 °C 1035.2 hPa Calm     96% 0.0 mm 14 W/m2
08:24 -2 °C -2.6 °C 1035.2 hPa Calm     96% 0.0 mm 16 W/m2
08:29 -2 °C -2.6 °C 1035.2 hPa Calm     96% 0.0 mm 18 W/m2
08:34 -2 °C -2.6 °C 1035.2 hPa ESE 3.2 km/h 3.2 km/h 96% 0.0 mm 21 W/m2
08:39 -1.9 °C -2.5 °C 1035.2 hPa ESE 1.4 km/h 3.2 km/h 96% 0.0 mm 25 W/m2
08:44 -1.9 °C -2.5 °C 1035.6 hPa ESE 1.4 km/h 1.6 km/h 96% 0.0 mm 28 W/m2
08:49 -1.9 °C -2.5 °C 1035.6 hPa Calm     96% 0.0 mm 32 W/m2
08:54 -1.8 °C -2.4 °C 1035.2 hPa Calm     96% 0.0 mm 33 W/m2
08:59 -1.8 °C -2.4 °C 1035.2 hPa Calm     96% 0.0 mm 35 W/m2
09:04 -1.7 °C -2.3 °C 1034.9 hPa Calm   3.2 km/h 96% 0.0 mm 37 W/m2
09:09 -1.6 °C -2.2 °C 1034.9 hPa Calm   1.6 km/h 96% 0.0 mm 39 W/m2
09:14 -1.5 °C -2.1 °C 1034.9 hPa Calm   3.2 km/h 96% 0.0 mm 42 W/m2
09:19 -1.4 °C -2 °C 1034.9 hPa ESE 1.4 km/h 1.6 km/h 96% 0.0 mm 47 W/m2
09:24 -1.3 °C -1.9 °C 1034.5 hPa Calm   3.2 km/h 96% 0.0 mm 51 W/m2
09:29 -1.2 °C -1.8 °C 1034.5 hPa Calm     96% 0.0 mm 49 W/m2
09:34 -1.2 °C -1.8 °C 1034.5 hPa ESE 1.4 km/h 3.2 km/h 96% 0.0 mm 47 W/m2
09:39 -1.2 °C -1.8 °C 1034.9 hPa ESE 1.4 km/h 1.6 km/h 96% 0.0 mm 42 W/m2
09:44 -1.2 °C -1.8 °C 1034.9 hPa Calm   3.2 km/h 96% 0.0 mm 39 W/m2
09:49 -1.2 °C -1.8 °C 1034.5 hPa Calm     96% 0.0 mm 39 W/m2
09:54 -1.2 °C -1.8 °C 1034.5 hPa Calm     96% 0.0 mm 40 W/m2
09:59 -1.2 °C -1.8 °C 1034.5 hPa Calm   1.6 km/h 96% 0.0 mm 47 W/m2
10:04 -1.2 °C -1.8 °C 1034.5 hPa Calm   1.6 km/h 96% 0.0 mm 77 W/m2
10:09 -1.1 °C -1.7 °C 1034.5 hPa Calm   1.6 km/h 96% 0.0 mm 79 W/m2
10:14 -1 °C -1.6 °C 1034.5 hPa Calm   3.2 km/h 96% 0.0 mm 56 W/m2
10:19 -0.9 °C -1.5 °C 1034.5 hPa Calm   1.6 km/h 96% 0.0 mm 56 W/m2
10:24 -0.9 °C -1.5 °C 1034.5 hPa Calm   1.6 km/h 96% 0.0 mm 70 W/m2
10:29 -0.8 °C -1.4 °C 1034.5 hPa East 1.4 km/h 3.2 km/h 96% 0.0 mm 84 W/m2
10:34 -0.7 °C -1.3 °C 1034.5 hPa East 1.4 km/h 1.6 km/h 96% 0.0 mm 105 W/m2
10:39 -0.6 °C -1.2 °C 1034.5 hPa Calm   3.2 km/h 96% 0.0 mm 116 W/m2
10:44 -0.5 °C -1.1 °C 1034.5 hPa East 1.4 km/h 1.6 km/h 96% 0.0 mm 116 W/m2
10:49 -0.4 °C -1 °C 1034.5 hPa Calm   1.6 km/h 96% 0.0 mm 130 W/m2
10:54 -0.3 °C -0.9 °C 1034.5 hPa East 1.4 km/h 1.6 km/h 96% 0.0 mm 125 W/m2
10:59 -0.2 °C -0.8 °C 1034.5 hPa Calm     96% 0.0 mm 121 W/m2
11:04 -0.1 °C -0.7 °C 1034.5 hPa Calm     96% 0.0 mm 98 W/m2
11:09 0.1 °C -0.5 °C 1034.5 hPa Calm   1.6 km/h 96% 0.0 mm 95 W/m2
11:14 0.2 °C -0.4 °C 1034.5 hPa Calm   1.6 km/h 96% 0.0 mm 95 W/m2
11:19 0.2 °C -0.4 °C 1034.5 hPa Calm     96% 0.0 mm 93 W/m2
11:24 0.3 °C -0.3 °C 1034.5 hPa Calm     96% 0.0 mm 97 W/m2
11:29 0.4 °C -0.2 °C 1034.5 hPa Calm     96% 0.0 mm 91 W/m2
11:34 0.4 °C -0.2 °C 1034.5 hPa Calm     96% 0.0 mm 98 W/m2
11:39 0.6 °C 0 °C 1034.2 hPa Calm   3.2 km/h 96% 0.0 mm 93 W/m2
11:44 0.7 °C 0.1 °C 1034.2 hPa Calm   4.8 km/h 96% 0.0 mm 90 W/m2
11:49 0.9 °C 0.3 °C 1034.2 hPa Calm   3.2 km/h 96% 0.0 mm 84 W/m2
11:54 1.1 °C 0.5 °C 1034.2 hPa ENE 1.4 km/h 3.2 km/h 96% 0.0 mm 77 W/m2
11:59 1.2 °C 0.6 °C 1034.2 hPa ENE 1.4 km/h 1.6 km/h 96% 0.0 mm 74 W/m2
12:04 1.3 °C 0.7 °C 1034.2 hPa Calm   1.6 km/h 96% 0.0 mm 70 W/m2
12:09 1.4 °C 0.8 °C 1034.2 hPa Calm   1.6 km/h 96% 0.0 mm 65 W/m2
12:14 1.5 °C 0.9 °C 1033.9 hPa ENE 1.4 km/h 3.2 km/h 96% 0.0 mm 56 W/m2
12:19 1.6 °C 1 °C 1033.9 hPa ENE 1.4 km/h 3.2 km/h 96% 0.0 mm 62 W/m2
12:24 1.7 °C 1.1 °C 1033.9 hPa Calm   1.6 km/h 96% 0.0 mm 62 W/m2
12:29 1.8 °C 1.2 °C 1033.9 hPa Calm   3.2 km/h 96% 0.0 mm 56 W/m2
12:34 1.9 °C 1.3 °C 1033.9 hPa Calm   1.6 km/h 96% 0.0 mm 56 W/m2
12:39 2.1 °C 1.5 °C 1033.9 hPa Calm   1.6 km/h 96% 0.0 mm 60 W/m2
12:44 2.2 °C 1.6 °C 1033.9 hPa ENE 1.4 km/h 3.2 km/h 96% 0.0 mm 65 W/m2
12:49 2.3 °C 1.7 °C 1033.5 hPa Calm   3.2 km/h 96% 0.0 mm 54 W/m2
12:54 2.5 °C 1.9 °C 1033.5 hPa Calm   3.2 km/h 96% 0.0 mm 53 W/m2
12:59 2.7 °C 2 °C 1033.5 hPa East 1.4 km/h 3.2 km/h 95% 0.0 mm 53 W/m2
13:04 2.8 °C 2.1 °C 1033.5 hPa East 1.4 km/h 1.6 km/h 95% 0.0 mm 53 W/m2
13:09 3 °C 2.3 °C 1033.5 hPa Calm   1.6 km/h 95% 0.0 mm 54 W/m2
13:14 3.2 °C 2.5 °C 1033.2 hPa ENE 1.4 km/h 3.2 km/h 95% 0.0 mm 53 W/m2
13:19 3.3 °C 2.6 °C 1033.2 hPa ENE 1.4 km/h 3.2 km/h 95% 0.0 mm 46 W/m2
13:24 3.4 °C 2.5 °C 1033.2 hPa Calm     94% 0.0 mm 49 W/m2
13:29 3.6 °C 2.7 °C 1033.2 hPa Calm   3.2 km/h 94% 0.0 mm 54 W/m2
13:34 3.7 °C 2.8 °C 1032.8 hPa East 1.4 km/h 3.2 km/h 94% 0.0 mm 65 W/m2
13:39 3.8 °C 2.9 °C 1032.8 hPa East 1.4 km/h 1.6 km/h 94% 0.0 mm 46 W/m2
13:45 4 °C 3.1 °C 1033.2 hPa Calm   3.2 km/h 94% 0.0 mm 42 W/m2
13:50 4.1 °C 3.1 °C 1032.8 hPa Calm     93% 0.0 mm 44 W/m2
13:55 4.1 °C 3.1 °C 1032.8 hPa Calm   1.6 km/h 93% 0.0 mm 58 W/m2
14:00 4.1 °C 3.1 °C 1032.8 hPa Calm     93% 0.0 mm 37 W/m2
14:05 4.1 °C 3.1 °C 1032.8 hPa Calm     93% 0.0 mm 35 W/m2
14:10 4.1 °C 3.1 °C 1032.5 hPa Calm   1.6 km/h 93% 0.0 mm 37 W/m2
14:15 4.1 °C 3.1 °C 1032.5 hPa Calm     93% 0.0 mm 33 W/m2
14:20 4 °C 3 °C 1032.5 hPa SSE 1.4 km/h 1.6 km/h 93% 0.0 mm 33 W/m2
14:25 3.9 °C 2.7 °C 1032.5 hPa SSE 1.4 km/h 3.2 km/h 92% 0.0 mm 32 W/m2
14:30 3.9 °C 2.9 °C 1032.5 hPa Calm     93% 0.0 mm 30 W/m2
14:35 3.9 °C 2.9 °C 1032.5 hPa ESE 1.4 km/h 1.6 km/h 93% 0.0 mm 28 W/m2
14:40 3.9 °C 2.7 °C 1032.2 hPa ESE 1.4 km/h 3.2 km/h 92% 0.0 mm 28 W/m2
14:45 3.9 °C 2.7 °C 1032.2 hPa SE 1.4 km/h 1.6 km/h 92% 0.0 mm 26 W/m2
14:50 3.9 °C 2.9 °C 1032.2 hPa Calm     93% 0.0 mm 28 W/m2
14:55 4 °C 3 °C 1032.2 hPa SE 1.4 km/h 1.6 km/h 93% 0.0 mm 30 W/m2
15:00 4 °C 2.8 °C 1032.2 hPa Calm   1.6 km/h 92% 0.0 mm 32 W/m2
15:05 4 °C 2.8 °C 1032.2 hPa Calm     92% 0.0 mm 30 W/m2
15:10 3.9 °C 2.7 °C 1032.2 hPa Calm     92% 0.0 mm 26 W/m2
15:15 3.9 °C 2.7 °C 1032.2 hPa Calm   1.6 km/h 92% 0.0 mm 25 W/m2
15:20 3.9 °C 2.7 °C 1032.2 hPa Calm   3.2 km/h 92% 0.0 mm 23 W/m2
15:25 3.8 °C 2.6 °C 1032.2 hPa Calm     92% 0.0 mm 25 W/m2
15:30 3.8 °C 2.6 °C 1032.2 hPa Calm     92% 0.0 mm 23 W/m2
15:35 3.8 °C 2.6 °C 1032.2 hPa Calm     92% 0.0 mm 21 W/m2
15:40 3.8 °C 2.6 °C 1032.2 hPa Calm     92% 0.0 mm 19 W/m2
15:45 3.7 °C 2.5 °C 1032.2 hPa Calm     92% 0.0 mm 19 W/m2
15:50 3.7 °C 2.5 °C 1031.8 hPa SE 1.4 km/h 1.6 km/h 92% 0.0 mm 18 W/m2
15:55 3.7 °C 2.5 °C 1031.8 hPa Calm   1.6 km/h 92% 0.0 mm 18 W/m2
16:00 3.6 °C 2.4 °C 1031.8 hPa Calm   1.6 km/h 92% 0.0 mm 16 W/m2
16:05 3.6 °C 2.4 °C 1031.8 hPa Calm     92% 0.0 mm 14 W/m2
16:10 3.6 °C 2.4 °C 1031.8 hPa Calm   1.6 km/h 92% 0.0 mm 14 W/m2
16:15 3.6 °C 2.4 °C 1031.8 hPa Calm   1.6 km/h 92% 0.0 mm 12 W/m2
16:20 3.6 °C 2.4 °C 1031.8 hPa Calm   1.6 km/h 92% 0.0 mm 11 W/m2
16:25 3.5 °C 2.3 °C 1031.8 hPa SE 1.4 km/h 3.2 km/h 92% 0.0 mm 11 W/m2
16:30 3.4 °C 2.1 °C 1031.8 hPa SE 3.2 km/h 3.2 km/h 91% 0.0 mm 9 W/m2
16:35 3.4 °C 2.2 °C 1031.8 hPa Calm   3.2 km/h 92% 0.0 mm 7 W/m2
16:40 3.4 °C 2.1 °C 1031.8 hPa SE 1.4 km/h 3.2 km/h 91% 0.0 mm 7 W/m2
16:45 3.4 °C 2.1 °C 1032.2 hPa SE 1.4 km/h 3.2 km/h 91% 0.0 mm 5 W/m2
16:50 3.4 °C 2.1 °C 1031.8 hPa SE 1.4 km/h 3.2 km/h 91% 0.0 mm 0 W/m2
16:55 3.4 °C 2.1 °C 1031.8 hPa SE 1.4 km/h 3.2 km/h 91% 0.0 mm 0 W/m2
17:00 3.3 °C 2 °C 1031.8 hPa SE 1.4 km/h 3.2 km/h 91% 0.0 mm 0 W/m2
17:05 3.3 °C 2 °C 1031.8 hPa SE 1.4 km/h 1.6 km/h 91% 0.0 mm 0 W/m2
17:10 3.2 °C 1.9 °C 1031.8 hPa SE 1.4 km/h 1.6 km/h 91% 0.0 mm 0 W/m2
17:15 3.1 °C 1.8 °C 1031.8 hPa Calm   3.2 km/h 91% 0.0 mm 0 W/m2
17:20 3 °C 1.7 °C 1031.8 hPa SE 1.4 km/h 3.2 km/h 91% 0.0 mm 0 W/m2
17:25 2.9 °C 1.6 °C 1031.8 hPa SE 1.4 km/h 3.2 km/h 91% 0.0 mm 0 W/m2
17:30 2.8 °C 1.5 °C 1031.8 hPa SE 1.4 km/h 3.2 km/h 91% 0.0 mm 0 W/m2
17:35 2.7 °C 1.4 °C 1031.8 hPa Calm   3.2 km/h 91% 0.0 mm 0 W/m2
17:40 2.7 °C 1.4 °C 1031.8 hPa SE 1.4 km/h 3.2 km/h 91% 0.0 mm 0 W/m2
17:45 2.7 °C 1.5 °C 1031.8 hPa SE 1.4 km/h 1.6 km/h 92% 0.0 mm 0 W/m2
17:50 2.7 °C 1.4 °C 1031.8 hPa SE 1.4 km/h 1.6 km/h 91% 0.0 mm 0 W/m2
17:55 2.6 °C 1.4 °C 1031.8 hPa Calm   3.2 km/h 92% 0.0 mm 0 W/m2
18:00 2.6 °C 1.4 °C 1031.8 hPa Calm   1.6 km/h 92% 0.0 mm 0 W/m2
18:05 2.5 °C 1.3 °C 1031.8 hPa SE 1.4 km/h 1.6 km/h 92% 0.0 mm 0 W/m2
18:10 2.4 °C 1.2 °C 1031.8 hPa SE 1.4 km/h 3.2 km/h 92% 0.0 mm 0 W/m2
18:15 2.4 °C 1.2 °C 1031.8 hPa Calm     92% 0.0 mm 0 W/m2
18:20 2.3 °C 1.1 °C 1031.8 hPa Calm   3.2 km/h 92% 0.0 mm 0 W/m2
18:25 2.3 °C 1.1 °C 1031.8 hPa Calm     92% 0.0 mm 0 W/m2
18:30 2.2 °C 1.2 °C 1031.8 hPa Calm     93% 0.0 mm 0 W/m2
18:35 2.3 °C 1.3 °C 1031.8 hPa Calm   1.6 km/h 93% 0.0 mm 0 W/m2
18:40 2.4 °C 1.4 °C 1031.8 hPa Calm     93% 0.0 mm 0 W/m2
18:45 2.4 °C 1.4 °C 1031.8 hPa Calm     93% 0.0 mm 0 W/m2
18:50 2.6 °C 1.6 °C 1031.8 hPa Calm     93% 0.0 mm 0 W/m2
18:55 2.6 °C 1.7 °C 1031.5 hPa Calm     94% 0.0 mm 0 W/m2
19:00 2.7 °C 1.8 °C 1031.8 hPa Calm     94% 0.0 mm 0 W/m2
19:05 2.7 °C 1.7 °C 1031.5 hPa SE 1.4 km/h 1.6 km/h 93% 0.0 mm 0 W/m2
19:10 2.6 °C 1.6 °C 1031.5 hPa Calm     93% 0.0 mm 0 W/m2
19:15 2.6 °C 1.6 °C 1031.8 hPa Calm     93% 0.0 mm 0 W/m2
19:21 2.5 °C 1.5 °C 1031.8 hPa Calm     93% 0.0 mm 0 W/m2
19:26 2.4 °C 1.4 °C 1031.8 hPa Calm     93% 0.0 mm 0 W/m2
19:31 2.3 °C 1.3 °C 1031.8 hPa Calm     93% 0.0 mm 0 W/m2
19:36 2.2 °C 1.2 °C 1031.8 hPa Calm     93% 0.0 mm 0 W/m2
19:41 2.1 °C 1.1 °C 1031.8 hPa Calm     93% 0.0 mm 0 W/m2
19:46 2 °C 1 °C 1031.8 hPa Calm     93% 0.0 mm 0 W/m2
19:51 1.9 °C 0.9 °C 1031.8 hPa Calm     93% 0.0 mm 0 W/m2
19:56 1.9 °C 0.9 °C 1031.8 hPa Calm     93% 0.0 mm 0 W/m2
20:01 1.8 °C 0.8 °C 1031.8 hPa Calm     93% 0.0 mm 0 W/m2
20:06 1.8 °C 0.8 °C 1031.8 hPa Calm     93% 0.0 mm 0 W/m2
20:11 1.7 °C 0.7 °C 1031.8 hPa Calm     93% 0.0 mm 0 W/m2
20:16 1.7 °C 0.7 °C 1031.8 hPa Calm     93% 0.0 mm 0 W/m2
20:21 1.6 °C 0.6 °C 1031.8 hPa Calm     93% 0.0 mm 0 W/m2
20:26 1.6 °C 0.6 °C 1031.8 hPa Calm     93% 0.0 mm 0 W/m2
20:31 1.5 °C 0.5 °C 1031.8 hPa Calm     93% 0.0 mm 0 W/m2
20:36 1.4 °C 0.4 °C 1031.8 hPa Calm     93% 0.0 mm 0 W/m2
20:41 1.3 °C 0.3 °C 1031.8 hPa Calm     93% 0.0 mm 0 W/m2
20:46 1.3 °C 0.3 °C 1031.8 hPa Calm     93% 0.0 mm 0 W/m2
20:51 1.2 °C 0.2 °C 1031.8 hPa Calm     93% 0.0 mm 0 W/m2
20:56 1.1 °C 0.1 °C 1031.8 hPa Calm     93% 0.0 mm 0 W/m2
21:01 1.1 °C 0.1 °C 1031.8 hPa Calm     93% 0.0 mm 0 W/m2
21:06 1 °C 0.1 °C 1031.8 hPa Calm     94% 0.0 mm 0 W/m2
21:11 0.9 °C 0 °C 1031.8 hPa Calm     94% 0.0 mm 0 W/m2
21:16 0.8 °C -0.1 °C 1031.8 hPa Calm     94% 0.0 mm 0 W/m2
21:21 0.8 °C -0.1 °C 1031.8 hPa Calm     94% 0.0 mm 0 W/m2
21:26 0.7 °C -0.2 °C 1031.8 hPa Calm     94% 0.0 mm 0 W/m2
21:31 0.7 °C -0.2 °C 1031.8 hPa Calm     94% 0.0 mm 0 W/m2
21:36 0.7 °C -0.2 °C 1031.8 hPa Calm     94% 0.0 mm 0 W/m2
21:41 0.6 °C -0.3 °C 1031.8 hPa Calm     94% 0.0 mm 0 W/m2
21:46 0.6 °C -0.3 °C 1031.5 hPa Calm     94% 0.0 mm 0 W/m2
21:51 0.6 °C -0.3 °C 1031.5 hPa Calm     94% 0.0 mm 0 W/m2
21:56 0.6 °C -0.1 °C 1031.5 hPa Calm     95% 0.0 mm 0 W/m2
22:01 0.6 °C -0.1 °C 1031.5 hPa Calm     95% 0.0 mm 0 W/m2
22:06 0.6 °C -0.3 °C 1031.5 hPa Calm     94% 0.0 mm 0 W/m2
22:11 0.5 °C -0.4 °C 1031.5 hPa Calm     94% 0.0 mm 0 W/m2
22:16 0.5 °C -0.4 °C 1031.5 hPa Calm     94% 0.0 mm 0 W/m2
22:21 0.4 °C -0.3 °C 1031.5 hPa Calm     95% 0.0 mm 0 W/m2
22:26 0.4 °C -0.3 °C 1031.5 hPa Calm     95% 0.0 mm 0 W/m2
22:31 0.3 °C -0.4 °C 1031.2 hPa Calm     95% 0.0 mm 0 W/m2
22:36 0.3 °C -0.4 °C 1031.2 hPa Calm     95% 0.0 mm 0 W/m2
22:41 0.3 °C -0.4 °C 1031.2 hPa Calm     95% 0.0 mm 0 W/m2
22:46 0.2 °C -0.5 °C 1031.2 hPa Calm     95% 0.0 mm 0 W/m2
22:51 0.2 °C -0.5 °C 1031.2 hPa Calm     95% 0.0 mm 0 W/m2
22:56 0.2 °C -0.5 °C 1030.8 hPa Calm     95% 0.0 mm 0 W/m2
23:01 0.2 °C -0.5 °C 1030.8 hPa Calm     95% 0.0 mm 0 W/m2
23:06 0.2 °C -0.5 °C 1030.8 hPa Calm     95% 0.0 mm 0 W/m2
23:11 0.2 °C -0.5 °C 1030.8 hPa Calm     95% 0.0 mm 0 W/m2
23:16 0.2 °C -0.5 °C 1030.8 hPa Calm     95% 0.0 mm 0 W/m2
23:21 0.3 °C -0.4 °C 1030.8 hPa Calm     95% 0.0 mm 0 W/m2
23:26 0.3 °C -0.4 °C 1031.2 hPa Calm     95% 0.0 mm 0 W/m2
23:31 0.3 °C -0.4 °C 1030.8 hPa Calm     95% 0.0 mm 0 W/m2
23:36 0.3 °C -0.4 °C 1031.2 hPa Calm     95% 0.0 mm 0 W/m2
23:41 0.3 °C -0.4 °C 1030.8 hPa Calm     95% 0.0 mm 0 W/m2
23:46 0.3 °C -0.4 °C 1030.8 hPa Calm     95% 0.0 mm 0 W/m2
23:51 0.4 °C -0.3 °C 1030.8 hPa Calm     95% 0.0 mm 0 W/m2
23:56 0.4 °C -0.3 °C 1030.8 hPa Calm     95% 0.0 mm 0 W/m2
Juneau County Weather
Compliments of Weather Underground - 2 mb